This is the latest recevied weather packets stored in our database for station/object WB3EGK. If no packets are shown the sender has not sent any weather packets the latest 10 day(s).
| Time | Temp. | Humidity | Pressure | Rain* | Wind** | Luminosity | Snow |
|---|---|---|---|---|---|---|---|
| 1777738301 | 4.44° C | 1% | 1014 hPa | 0 mm | - | 442 W/m² | - |
| 1777737999 | 4.44° C | 1% | 1014.1 hPa | 0 mm | - | 363 W/m² | - |
| 1777737698 | 3.89° C | 1% | 1014 hPa | 0 mm | - | 277 W/m² | - |
| 1777737395 | 3.33° C | 1% | 1014.1 hPa | 0 mm | - | 323 W/m² | - |
| 1777737092 | 3.33° C | 1% | 1014.2 hPa | 0 mm | - | 370 W/m² | - |
| 1777736788 | 3.33° C | 1% | 1013.9 hPa | 0 mm | - | 272 W/m² | - |
| 1777736160 | 2.78° C | 1% | 1014 hPa | 0 mm | - | 252 W/m² | - |
| 1777735857 | 2.78° C | 1% | 1013.7 hPa | 0 mm | - | 260 W/m² | - |
| 1777735555 | 2.78° C | 1% | 1013.7 hPa | 0 mm | - | 225 W/m² | - |
| 1777735252 | 2.78° C | 1% | 1014 hPa | 0 mm | - | 182 W/m² | - |
| 1777734949 | 2.78° C | 1% | 1014 hPa | 0 mm | - | 187 W/m² | - |
| 1777734646 | 2.78° C | 1% | 1013.8 hPa | 0 mm | - | 170 W/m² | - |
| 1777734344 | 2.22° C | 1% | 1013.9 hPa | 0 mm | - | 144 W/m² | - |
| 1777734039 | 2.22° C | 1% | 1014 hPa | 0 mm | - | 92 W/m² | - |
| 1777733736 | 2.22° C | 1% | 1013.8 hPa | 0 mm | - | 77 W/m² | - |
| 1777733433 | 2.22° C | 1% | 1013.9 hPa | 0 mm | - | 78 W/m² | - |
| 1777733129 | 2.22° C | 1% | 1013.8 hPa | 0 mm | - | 90 W/m² | - |
| 1777732826 | 2.78° C | 1% | 1013.9 hPa | 0 mm | - | 85 W/m² | - |
| 1777732522 | 2.78° C | 1% | 1013.8 hPa | 0 mm | - | 121 W/m² | - |
| 1777732221 | 2.22° C | 1% | 1013.6 hPa | 0 mm | - | 147 W/m² | - |
| 1777731917 | 2.22° C | 1% | 1013.5 hPa | 0 mm | - | 122 W/m² | - |
| 1777731614 | 2.22° C | 1% | 1013.5 hPa | 0 mm | - | 92 W/m² | - |
| 1777731311 | 2.22° C | 1% | 1013.4 hPa | 0 mm | - | 108 W/m² | - |
| 1777731009 | 2.22° C | 1% | 1013.5 hPa | 0 mm | - | 190 W/m² | - |
| 1777730708 | 2.22° C | 1% | 1013.5 hPa | 0 mm | - | 225 W/m² | - |
* Rain latest hour (hover to see other rain measurements)
** Current wind speed in m/s (hover to see current wind gust speed)